Regional Weather Roundup
Issued by NWS

Home | Current Version | Previous Version | Graphics & Text | Print | Product List | Glossary On
Versions: 1 2 3 4 5 6 7 8 9 10 11 12 13 14 15 16 17 18 19 20 21 22 23 24 25 26 27 28 29 30 31 32 33 34 35 36 37 38 39 40 41 42 43 44 45 46 47 48 49 50
000
ASUS43 KLOT 171600
RWRIL

ILLINOIS REGIONAL WEATHER ROUNDUP
NATIONAL WEATHER SERVICE CHICAGO/ROMEOVILLE IL
1100 AM CDT THU APR 17 2014

NOTE: "FAIR" INDICATES FEW OR NO CLOUDS BELOW 12,000 FEET WITH NO
SIGNIFICANT WEATHER AND/OR OBSTRUCTIONS TO VISIBILITY.

* THESE STATIONS ARE NOT UNDER NWS QUALITY CONTROL. THEY ALSO MAY NOT
  REPORT WEATHER SUCH AS PRECIPITATION OR FOG.

ILZ001-002-007-009-015-016-024-171700-
NORTHWEST ILLINOIS

CITY           SKY/WX    TMP DP  RH WIND       PRES   REMARKS
MOLINE         CLOUDY    45  34  65 W12       30.23R
STERLING*      CLOUDY    48  36  61 W14       30.20R
$$

ILZ003-004-008-010-011-017-018-171700-
NORTH CENTRAL ILLINOIS

CITY           SKY/WX    TMP DP  RH WIND       PRES   REMARKS
ROCKFORD       CLOUDY    47  36  65 W9G20     30.20R
FREEPORT*      CLOUDY    45  37  76 W13       30.19R
$$

ILZ005-006-012>014-019>023-171700-
NORTHEAST ILLINOIS

CITY           SKY/WX    TMP DP  RH WIND       PRES   REMARKS
CHICAGO-OHARE  MOSUNNY   54  33  45 SW18      30.16R
CHICAGO-MIDWAY PTSUNNY   55  35  47 SW15      30.18R
AURORA         MOSUNNY   53  40  61 W15G22    30.18R
WAUKEGAN       MOSUNNY   52  36  54 SW17G28   30.14R
DUPAGE AIRPORT MOSUNNY   54  38  54 SW15G21   30.17R
WHEELING       SUNNY     54  35  48 SW15G21   30.17R
NORTHERLY ISL    N/A     53  31  43 S10         N/A
$$

LMZ740>746-171700-
SOUTHERN LAKE MICHIGAN

STATION/POSITION SKY/WX   TEMP    WIND        PRES    VSBY  WAVE
                          AIR SEA DIR/SP/G                  HT/PER
                          (F)     (DEG/KT/KT) (MB)    (MI)  (FT/S)
WAUKEGAN HARBOR            50     250/ 15/ 20 1021.7R
HARRISON CRIB              48     210/ 21/ 26   N/A
BURNHAM HARBOR             53     210/ 13/ 18   N/A
CALUMET HARBOR             51     200/ 15/ 23 1022.5R
MICHIGAN CITY              51     180/ 14/ 20   N/A
$$

ILZ025>027-034>036-040-047-049-050-058-095>099-171700-
WEST-CENTRAL ILLINOIS

CITY           SKY/WX    TMP DP  RH WIND       PRES   REMARKS
QUINCY         CLOUDY    47  36  65 NW9       30.26R
$$

ILZ028>032-037-038-041>044-048-051>054-059>061-171700-
CENTRAL ILLINOIS

CITY           SKY/WX    TMP DP  RH WIND       PRES   REMARKS
DECATUR          N/A     57  36  45 SW16      30.24S
PEORIA         PTSUNNY   52  37  56 W8        30.23R
SPRINGFIELD    MOSUNNY   58  33  39 W14       30.24R
TAYLORVILLE    NOT AVBL
$$

ILZ033-039-045-046-055>057-062-063-171700-
EAST-CENTRAL ILLINOIS

CITY           SKY/WX    TMP DP  RH WIND       PRES   REMARKS
CHAMPAIGN      SUNNY     60  34  37 SW15G28   30.24R
MATTOON        SUNNY     58  36  43 S15G23    30.25S
$$

ILZ079-100>102-171700-
SOUTHWEST ILLINOIS

CITY           SKY/WX    TMP DP  RH WIND       PRES   REMARKS
ALTON          CLOUDY    57  34  41 S8        30.26R
BELLEVILLE     PTSUNNY   61  36  39 SW12      30.25S
CAHOKIA*       PTSUNNY   60  35  39 S9        30.25S
$$

ILZ064>066-069>071-074>076-080>082-084>086-088>090-092>094-171700-
SOUTH-CENTRAL ILLINOIS

CITY           SKY/WX    TMP DP  RH WIND       PRES   REMARKS
CARBONDALE     SUNNY     62  35  36 S15       30.29R
MARION         MOSUNNY   61  37  41 SW12      30.31R
MT. VERNON     SUNNY     63  37  39 S15       30.29S
$$

ILZ067-068-072-073-078-083-087-091-171700-
SOUTHEAST ILLINOIS

CITY           SKY/WX    TMP DP  RH WIND       PRES   REMARKS
$$

ABBREVIATIONS USED IN REMARKS
   TC - TEMPERATURE IN CELSIUS
  WCI - WIND CHILL INDEX
   HX - HEAT INDEX
  VSB - VISIBILITY
$$




USA.gov is the U.S. government's official web portal to all federal, state and local government web resources and services.